Regional Weather Roundup
Issued by NWS Goodland, KS

Home | Current Version | Previous Version | Graphics & Text | Print | Product List | Glossary Off
Versions: 1 2 3 4 5 6 7 8 9 10 11 12 13 14 15 16 17 18 19 20 21 22 23 24 25 26 27 28 29 30 31 32 33 34 35 36 37 38 39 40 41 42 43 44 45 46 47 48 49 50

000
ASUS43 KGLD 261008
RWRGLD

GOODLAND FORECAST AREA HOURLY WEATHER ROUNDUP
NATIONAL WEATHER SERVICE GOODLAND KS
400 AM MDT WED APR 26 2017

...OFFICIAL OBSERVATIONS...

CITY           SKY/WX    TMP DP  RH WIND       PRES   REMARKS
GOODLAND KS    CLEAR     32  27  81 N15       29.77R
HILL CITY KS   CLOUDY    38  29  70 N13       29.79R
IMPERIAL NEB   PTCLDY    31  24  75 N18       29.79S WCI  19
MCCOOK NEB     CLOUDY    34  26  72 N13       29.80R
AKRON CO       MOCLDY    28  25  88 NW10      29.80R WCI  19
BURLINGTON CO  NOT AVBL
LIMON CO       CLOUDY    29  27  92 N14       29.79F WCI  18
$$

...UNOFFICIAL OBSERVATIONS...

CITY           SKY/WX    TMP DP  RH WIND       PRES   REMARKS
LENORA KS        N/A     36  32  85 MISG        N/A
NORTON KS      CLOUDY    36  25  64 NW16      29.77R
SHARON SPRINGS   N/A     36  31  82 N20G26      N/A
TRENTON NEB      N/A     31  32 100 NW12        N/A
KIT CARSON CO    N/A     34  30  85 MISG        N/A
YUMA CO        FAIR      30  27  86 NW13      29.80S
$$




USA.gov is the U.S. government's official web portal to all federal, state and local government web resources and services.